Regional Weather Roundup
Issued by NWS Austin/San Antonio, TX

Home | Current Version | Previous Version | Text Only | Print | Product List | Glossary On
Versions: 1 2 3 4 5 6 7 8 9 10 11 12 13 14 15 16 17 18 19 20 21 22 23 24 25 26 27 28 29 30 31 32 33 34 35 36 37 38 39 40 41 42 43 44 45 46 47 48 49 50
000
ASUS44 KEWX 191510
RWREWX
SOUTH TEXAS REGIONAL WEATHER ROUNDUP
NATIONAL WEATHER SERVICE AUSTIN/SAN ANTONIO TX
900 AM CST MON FEB 19 2018

NOTE: "FAIR" INDICATED FEW OR NO CLOUDS BELOW 12,000 FEET WITH NO
SIGNIFICANT WEATHER AND/OR OBSTRUCTIONS TO VISIBILITY.

* - THESE STATIONS ARE NOT NWS OR FAA STATIONS...AND ARE NOT SUBJECT
    TO NWS AND FAA QUALITY CONTROL.

TXZ171-172-183>190-191600-
TEXAS HILL COUNTRY AND EDWARDS PLATEAU

CITY           SKY/WX    TMP DP  RH WIND       PRES   REMARKS
JUNCTION       PTSUNNY   68  63  84 S14G20    29.86R
*LLANO           N/A    N/A N/A N/A MISG        N/A
BURNET         CLOUDY    68  63  84 SE6       29.93S
*HORSESHOE BAY CLOUDY    71  63  75 S12G22    29.91S
*KERRVILLE     CLOUDY    66  61  83 S18G26    29.92R
*FREDERICKSBRG CLOUDY    68  59  73 S18G24    29.91S
*ROCKSPRINGS   CLOUDY    63  63 100 S21       29.94R FOG
*BOERNE STAGE  CLOUDY    64  63  94 S15G22    29.94R
*CASTROVILLE   CLOUDY    71  66  84 SE15      29.93S
HONDO          CLOUDY    71  65  81 SE13      29.91R
*UVALDE        CLOUDY    68  64  86 SE12      29.90R
DEL RIO        CLOUDY    68  65  90 SE13      29.84S
LAUGHLIN AFB   CLOUDY    69  64  85 SE12      29.85S
CARRIZO SPRGS  CLOUDY    70  64  83 SE8       29.86R
*EAGLE PASS    CLOUDY    70  64  83 SE8G17    29.86R
*FAITH RANCH   SUNNY     72  66  83 SE15G22   29.86R
$$

TXZ173-191>194-202-209-217>225-228-191600-
CENTRAL AND SOUTH CENTRAL TEXAS

CITY           SKY/WX    TMP DP  RH WIND       PRES   REMARKS
GEORGETOWN     PTSUNNY   70  65  84 S14G21    29.94S
AUSTIN/BERGSTM CLOUDY    71  67  87 S15       29.93R
AUSTIN/MABRY   CLOUDY    70  65  84 S7        29.94R
*AUSTIN/EXEC   CLOUDY    70  66  88 S14G20    29.94S
*LAGO VISTA    CLOUDY    69  66  89 S13G21    29.93F
SAN MARCOS     CLOUDY    71  65  81 S18G25    29.93F
NEW BRAUNFELS  CLOUDY    72  64  76 S17       29.91F
RANDOLPH AFB   CLOUDY    71  65  81 SE15      29.92S
PT SAN ANTONIO PTSUNNY   70  65  84 SE16      29.91R
SAN ANTONIO    CLOUDY    69  64  84 SE14      29.93R
STINSON FIELD  CLOUDY    73  66  78 SE15      29.91R
*LA GRANGE     CLOUDY    73  67  81 S13G22    29.95R
*GIDDINGS      PTSUNNY   71  64  78 S17       29.97R
*GONZALES      CLOUDY    73  67  82 S20G26    29.95R
$$

TXZ163>164-176>182-195>201-210>213-226-227-235-191600-
SOUTHEAST TEXAS

CITY           SKY/WX    TMP DP  RH WIND       PRES   REMARKS
COLLEGE STN    PTSUNNY   71  66  84 S16       29.97R
*BRYAN         CLOUDY    70  68  92 S15       29.99R
*CALDWELL      CLOUDY    72  66  82 S15       29.97R
*CROCKETT      LGT RAIN  68  64  88 S14       30.03R
*BRENHAM       CLOUDY    73  67  79 S15G24    29.98S
HUNTSVILLE     CLOUDY    72  64  76 S13G20    30.00S
CONROE         CLOUDY    71  67  87 S17G24    30.01S
HOUSTON BUSH   CLOUDY    73  67  81 S14G24    30.02R
HOUSTON HOBBY  PTSUNNY   71  69  93 S12       30.02R
*HOUSTON SW AP PTSUNNY   71  67  87 S8        30.03R
PEARLAND       CLOUDY    71  68  90 S10G20    30.04R
HOUSTON HOOKS  CLOUDY    72  67  84 S10G20    30.01R
ELLINGTON FLD  PTSUNNY   70  68  94 SE14      30.04R
SUGAR LAND     CLOUDY    74  67  78 S17       30.00R
*HOUSTON EXEC  CLOUDY    73  68  83 S17       30.01R
*CLEVELAND MUN CLOUDY    70  64  80 S8        30.04R
*WHARTON       PTSUNNY   71  66  84 SE14      30.00S
*COLUMBUS      CLOUDY    71  67  88 S14G21    29.99S
*EAGLE LAKE    CLOUDY    73  69  87 S18       29.99R
$$

TXZ214>216-236>238-191600-
THE UPPER TEXAS COAST

CITY           SKY/WX    TMP DP  RH WIND       PRES   REMARKS
*ORANGE        FAIR      71  69  94 S8        30.09R
PORT ARTHUR    CLOUDY    72  67  84 S14       30.06R
GALVESTON      CLOUDY    70  67  90 SE17      30.05R
ANGLETON       FAIR      74  67  78 S17G25    30.01R
*BAY CITY      MOSUNNY   72  69  91 S13G20    30.01R
PALACIOS       CLOUDY    71  69  93 S15G24    30.00R
$$

TXZ229>234-239>247-191600-
TEXAS COASTAL BEND AND RIO GRANDE PLAINS

CITY           SKY/WX    TMP DP  RH WIND       PRES   REMARKS
VICTORIA       CLOUDY    73  67  81 S18       29.97R
*BEEVILLE      CLOUDY    71  66  84 S25G35    29.92F
ROCKPORT       CLOUDY    71  68  90 SE14G20   29.97R FOG
*PORT ARANSAS  NOT AVBL
*PORT LAVACA   CLOUDY    71  68  89 S14       29.99R
*INGLESIDE     CLOUDY    72  68  89 MISG      29.96S
CORPUS CHRISTI CLOUDY    71  69  93 S26       29.95R
CORPUS NAS     CLOUDY    72  70  93 S18G25    29.95S
*ROBSTOWN      PTSUNNY   72  68  88 SE20G25   29.94S
ALICE          CLOUDY    73  66  78 S18G30    29.91S
KINGSVILLE NAS PTSUNNY   75  68  78 S17       29.92S
COTULLA        CLOUDY    71  65  81 S12       29.89R
LAREDO         CLOUDY    71  64  78 SE17G25   29.87R
$$

TXZ248>255-191600-
DEEP SOUTH TEXAS

CITY           SKY/WX    TMP DP  RH WIND       PRES   REMARKS
BROWNSVILLE    PTSUNNY   76  72  87 S21G35    29.95R
PORT ISABEL    PTSUNNY   74  68  81 S22G29    29.94R
*SOUTH PADRE   NOT AVBL
HARLINGEN      PTSUNNY   75  71  87 S25G35    29.92S
*HEBBRONVILLE  CLOUDY    70  64  83 S21G26    29.90S
MCALLEN        PTSUNNY   77  70  79 S23G29    29.90S
*WESLACO       NOT AVBL
FALFURRIAS     PTSUNNY   75  66  75 SE18G24   29.92R
EDINBURG       CLOUDY    76  68  74 S16       29.91S
*ZAPATA        PTSUNNY   73  64  74 SE20G26   29.86S
$$

TXZ213>215-236>238-242>244-246-247-251-254-255-191600-
CMAN STATIONS

STATION/POSITION TIME  TEMP    WIND        PRES    WAVE
                       AIR SEA DIR/SP/G            HT/PER
                 (UTC) (F)     (DEG/KT/KT) (MB)    (FT/S)
SABINE PASS      1448   66 67  140/ 10/ 13 1019.6
SEA RIM ST PARK  1500   66     150/  6/  9 1018.5
NORTH JETTY/GLS  1442      60  140/ 12/ 14 1017.0
EAGLE POINT      1448   68 65  170/ 13/ 15 1017.2
MORGANS POINT    1448   68 62  150/  5/ 10 1017.1
PORT O`CONNOR    1448   65 62  150/ 11/ 14 1015.3
MALAQUITE BEACH  1448   90 63  140/ 11/ 12 1014.1
BAFFIN BAY       1448   65 68  140/ 12/ 15 1014.2
PORT ISABEL      1442   70 65  160/ 12/ 17 1014.1
$$




USA.gov is the U.S. government's official web portal to all federal, state and local government web resources and services.